Location: Minneapolis
(45.0000°N, 93.0000°W)
Time: 05:42:40
(UTC-05:00)

ISS - Pass Details

Date: 08 March 2018
Orbit: 403 x 408 km, 51.6° (Epoch: 24 June)

Event Time Altitude Azimuth Distance (km) Brightness Sun altitude
Exits shadow 04:52:40 29° 340° (NNW) 795 -2.5 -19.2°
Maximum altitude 04:52:54 29° 348° (NNW) 789 -2.4 -19.2°
Drops below altitude 10° 04:55:51 10° 51° (NE) 1,478 0.0 -18.7°
Sets 04:58:07 0° 63° (ENE) 2,337 1.5 -18.3°
